Previsão horária em Abadiânia

Hoje, 24 Outubro, Sábado

Tempo Temperatura Precipitação Vento Pressão Humidade
00:00 +21°C° 0.1 mm 1 m/s 674 mmHg 89%
01:00 +21°C° 0.3 mm 1 m/s 674 mmHg 90%
02:00 +21°C° 0.3 mm 1 m/s 674 mmHg 92%
03:00 +20°C° 0.3 mm 2 m/s 674 mmHg 93%
04:00 +20°C° 0.5 mm 1 m/s 674 mmHg 94%
05:00 +20°C° 0.5 mm 1 m/s 674 mmHg 95%
06:00 +20°C° 0.5 mm 1 m/s 675 mmHg 95%
07:00 +21°C° 1.2 mm 2 m/s 675 mmHg 90%
08:00 +22°C° 1.2 mm 3 m/s 676 mmHg 84%
09:00 +25°C° 1.2 mm 4 m/s 677 mmHg 79%
10:00 +25°C° 1.5 mm 4 m/s 677 mmHg 78%
11:00 +25°C° 1.5 mm 4 m/s 676 mmHg 78%
12:00 +25°C° 1.5 mm 4 m/s 676 mmHg 78%
13:00 +23°C° 1.5 mm 4 m/s 675 mmHg 82%
14:00 +22°C° 1.5 mm 4 m/s 674 mmHg 87%
15:00 +21°C° 1.5 mm 3 m/s 673 mmHg 91%
16:00 +21°C° 0.7 mm 3 m/s 673 mmHg 91%
17:00 +21°C° 0.7 mm 3 m/s 673 mmHg 91%
18:00 +21°C° 0.7 mm 2 m/s 673 mmHg 91%
19:00 +20°C° 0.4 mm 2 m/s 673 mmHg 92%
20:00 +20°C° 0.4 mm 2 m/s 673 mmHg 94%
21:00 +20°C° 0.4 mm 1 m/s 674 mmHg 95%
22:00 +19°C° 0.5 mm 2 m/s 674 mmHg 94%
23:00 +20°C° 0.5 mm 2 m/s 674 mmHg 94%

Amanhã, 25 Outubro, Domingo

Tempo Temperatura Precipitação Vento Pressão Humidade
00:00 +20°C° 0.5 mm 2 m/s 674 mmHg 93%
01:00 +20°C° 0.3 mm 2 m/s 673 mmHg 92%
02:00 +20°C° 0.3 mm 2 m/s 673 mmHg 92%
03:00 +20°C° 0.3 mm 2 m/s 673 mmHg 92%
04:00 +19°C° 0.1 mm 2 m/s 673 mmHg 92%
05:00 +19°C° 0.1 mm 2 m/s 673 mmHg 93%
06:00 +19°C° 0.1 mm 2 m/s 673 mmHg 94%
07:00 +20°C° 0.5 mm 3 m/s 674 mmHg 90%
08:00 +22°C° 0.5 mm 4 m/s 674 mmHg 85%
09:00 +25°C° 0.5 mm 4 m/s 675 mmHg 80%
10:00 +26°C° 0.6 mm 4 m/s 675 mmHg 76%
11:00 +27°C° 0.6 mm 5 m/s 675 mmHg 71%
12:00 +28°C° 0.6 mm 5 m/s 675 mmHg 67%
13:00 +28°C° 0.6 mm 5 m/s 674 mmHg 67%
14:00 +28°C° 0.6 mm 5 m/s 674 mmHg 67%
15:00 +28°C° 0.6 mm 5 m/s 673 mmHg 67%
16:00 +27°C° 0.1 mm 4 m/s 673 mmHg 72%
17:00 +26°C° 0.1 mm 3 m/s 673 mmHg 77%
18:00 +25°C° 0.1 mm 2 m/s 672 mmHg 82%
19:00 +24°C° 0.3 mm 2 m/s 673 mmHg 85%
20:00 +23°C° 0.3 mm 2 m/s 673 mmHg 88%
21:00 +22°C° 0.3 mm 1 m/s 673 mmHg 91%
22:00 +22°C° 0 mm 1 m/s 673 mmHg 92%
23:00 +22°C° 0 mm 1 m/s 673 mmHg 92%

Depois de amanhã, 26 Outubro, Segunda-feira

Tempo Temperatura Precipitação Vento Pressão Humidade
00:00 +21°C° 0 mm 1 m/s 672 mmHg 92%
01:00 +21°C° 0.2 mm 1 m/s 672 mmHg 92%
02:00 +21°C° 0.2 mm 1 m/s 672 mmHg 93%
03:00 +21°C° 0.2 mm 1 m/s 672 mmHg 93%
04:00 +21°C° 0 mm 1 m/s 672 mmHg 93%
05:00 +21°C° 0 mm 1 m/s 672 mmHg 93%
06:00 +21°C° 0 mm 1 m/s 673 mmHg 93%
07:00 +23°C° 0.2 mm 2 m/s 673 mmHg 84%
08:00 +25°C° 0.2 mm 2 m/s 674 mmHg 75%
09:00 +27°C° 0.2 mm 3 m/s 675 mmHg 67%
10:00 +28°C° 1 mm 3 m/s 675 mmHg 66%
11:00 +28°C° 1 mm 3 m/s 675 mmHg 66%
12:00 +28°C° 1 mm 3 m/s 674 mmHg 65%
13:00 +28°C° 1.4 mm 3 m/s 674 mmHg 67%
14:00 +28°C° 1.4 mm 3 m/s 674 mmHg 68%
15:00 +28°C° 1.4 mm 4 m/s 673 mmHg 69%
16:00 +27°C° 0.6 mm 3 m/s 673 mmHg 74%
17:00 +26°C° 0.6 mm 2 m/s 672 mmHg 79%
18:00 +24°C° 0.6 mm 2 m/s 672 mmHg 84%
19:00 +24°C° 0.5 mm 1 m/s 672 mmHg 86%
20:00 +23°C° 0.5 mm 1 m/s 673 mmHg 87%
21:00 +22°C° 0.5 mm 1 m/s 673 mmHg 89%
22:00 +22°C° 0.2 mm 1 m/s 673 mmHg 88%
23:00 +22°C° 0.2 mm 1 m/s 673 mmHg 88%

, 27 Outubro, Terça-feira

Tempo Temperatura Precipitação Vento Pressão Humidade
00:00 +22°C° 0.2 mm 1 m/s 673 mmHg 88%
01:00 +22°C° 0.1 mm 1 m/s 673 mmHg 88%
02:00 +22°C° 0.1 mm 1 m/s 672 mmHg 89%
03:00 +22°C° 0.1 mm 1 m/s 671 mmHg 90%
04:00 +21°C° 0 mm 1 m/s 671 mmHg 90%
05:00 +21°C° 0 mm 1 m/s 672 mmHg 90%
06:00 +21°C° 0 mm 1 m/s 672 mmHg 90%
07:00 +23°C° 0 mm 1 m/s 673 mmHg 84%
08:00 +25°C° 0 mm 2 m/s 673 mmHg 78%
09:00 +27°C° 0 mm 2 m/s 674 mmHg 72%
10:00 +28°C° 0.8 mm 2 m/s 674 mmHg 68%
11:00 +29°C° 0.8 mm 3 m/s 674 mmHg 63%
12:00 +30°C° 0.8 mm 3 m/s 673 mmHg 59%
13:00 +29°C° 1.1 mm 3 m/s 673 mmHg 61%
14:00 +29°C° 1.1 mm 3 m/s 672 mmHg 63%
15:00 +29°C° 1.1 mm 3 m/s 672 mmHg 65%
16:00 +27°C° 2.1 mm 3 m/s 671 mmHg 71%
17:00 +26°C° 2.1 mm 2 m/s 671 mmHg 77%
18:00 +24°C° 2.1 mm 2 m/s 671 mmHg 82%
19:00 +24°C° 0.1 mm 2 m/s 671 mmHg 84%
20:00 +23°C° 0.1 mm 1 m/s 671 mmHg 85%
21:00 +23°C° 0.1 mm 1 m/s 672 mmHg 86%
22:00 +23°C° 0.2 mm 1 m/s 672 mmHg 86%
23:00 +23°C° 0.2 mm 1 m/s 672 mmHg 86%

27 Outubro, Terça-feira

Tempo Temperatura Precipitação Vento Pressão Humidade
00:00 +22°C° 0.2 mm 1 m/s 673 mmHg 88%
01:00 +22°C° 0.1 mm 1 m/s 673 mmHg 88%
02:00 +22°C° 0.1 mm 1 m/s 672 mmHg 89%
03:00 +22°C° 0.1 mm 1 m/s 671 mmHg 90%
04:00 +21°C° 0 mm 1 m/s 671 mmHg 90%
05:00 +21°C° 0 mm 1 m/s 672 mmHg 90%
06:00 +21°C° 0 mm 1 m/s 672 mmHg 90%
07:00 +23°C° 0 mm 1 m/s 673 mmHg 84%
08:00 +25°C° 0 mm 2 m/s 673 mmHg 78%
09:00 +27°C° 0 mm 2 m/s 674 mmHg 72%
10:00 +28°C° 0.8 mm 2 m/s 674 mmHg 68%
11:00 +29°C° 0.8 mm 3 m/s 674 mmHg 63%
12:00 +30°C° 0.8 mm 3 m/s 673 mmHg 59%
13:00 +29°C° 1.1 mm 3 m/s 673 mmHg 61%
14:00 +29°C° 1.1 mm 3 m/s 672 mmHg 63%
15:00 +29°C° 1.1 mm 3 m/s 672 mmHg 65%
16:00 +27°C° 2.1 mm 3 m/s 671 mmHg 71%
17:00 +26°C° 2.1 mm 2 m/s 671 mmHg 77%
18:00 +24°C° 2.1 mm 2 m/s 671 mmHg 82%
19:00 +24°C° 0.1 mm 2 m/s 671 mmHg 84%
20:00 +23°C° 0.1 mm 1 m/s 671 mmHg 85%
21:00 +23°C° 0.1 mm 1 m/s 672 mmHg 86%
22:00 +23°C° 0.2 mm 1 m/s 672 mmHg 86%
23:00 +23°C° 0.2 mm 1 m/s 672 mmHg 86%

28 Outubro, Quarta-feira

Tempo Temperatura Precipitação Vento Pressão Humidade
00:00 +23°C° 0.2 mm 1 m/s 672 mmHg 85%
01:00 +22°C° 0.2 mm 1 m/s 671 mmHg 86%
02:00 +22°C° 0.2 mm 1 m/s 671 mmHg 87%
03:00 +22°C° 0.2 mm 1 m/s 671 mmHg 88%
04:00 +22°C° 0 mm 1 m/s 671 mmHg 89%
05:00 +22°C° 0 mm 1 m/s 672 mmHg 89%
06:00 +22°C° 0 mm 1 m/s 672 mmHg 89%
07:00 +23°C° 0.4 mm 1 m/s 673 mmHg 85%
08:00 +25°C° 0.4 mm 1 m/s 673 mmHg 81%
09:00 +26°C° 0.4 mm 2 m/s 674 mmHg 77%
10:00 +27°C° 0.2 mm 2 m/s 674 mmHg 73%
11:00 +27°C° 0.2 mm 3 m/s 673 mmHg 70%
12:00 +28°C° 0.2 mm 3 m/s 673 mmHg 66%
13:00 +28°C° 0 mm 3 m/s 673 mmHg 64%
14:00 +29°C° 0 mm 3 m/s 672 mmHg 61%
15:00 +29°C° 0 mm 3 m/s 672 mmHg 59%
16:00 +28°C° 1.3 mm 2 m/s 672 mmHg 68%
17:00 +26°C° 1.3 mm 2 m/s 671 mmHg 77%
18:00 +24°C° 1.3 mm 2 m/s 670 mmHg 86%
19:00 +23°C° 0 mm 1 m/s 671 mmHg 87%
20:00 +23°C° 0 mm 1 m/s 671 mmHg 88%
21:00 +22°C° 0 mm 1 m/s 672 mmHg 88%
22:00 +22°C° 0 mm 1 m/s 672 mmHg 89%
23:00 +22°C° 0 mm 1 m/s 672 mmHg 89%

29 Outubro, Quinta-feira

Tempo Temperatura Precipitação Vento Pressão Humidade
00:00 +20°C° 0 mm 0 m/s 672 mmHg 89%
01:00 +22°C° 0 mm 1 m/s 672 mmHg 89%
02:00 +22°C° 0 mm 1 m/s 672 mmHg 88%
03:00 +22°C° 0 mm 1 m/s 671 mmHg 88%
04:00 +22°C° 0 mm 1 m/s 672 mmHg 88%
05:00 +22°C° 0 mm 1 m/s 672 mmHg 89%
06:00 +22°C° 0 mm 1 m/s 672 mmHg 89%
07:00 +23°C° 0 mm 2 m/s 673 mmHg 85%
08:00 +24°C° 0 mm 2 m/s 674 mmHg 80%
09:00 +26°C° 0 mm 2 m/s 675 mmHg 76%
10:00 +27°C° 0.9 mm 3 m/s 674 mmHg 73%
11:00 +28°C° 0.9 mm 3 m/s 674 mmHg 69%
12:00 +29°C° 0.9 mm 4 m/s 674 mmHg 66%
13:00 +28°C° 2.3 mm 4 m/s 674 mmHg 68%
14:00 +28°C° 2.3 mm 3 m/s 673 mmHg 71%
15:00 +27°C° 2.3 mm 3 m/s 673 mmHg 73%
16:00 +26°C° 1.1 mm 2 m/s 673 mmHg 79%
17:00 +24°C° 1.1 mm 2 m/s 673 mmHg 85%
18:00 +23°C° 1.1 mm 1 m/s 672 mmHg 91%
19:00 +23°C° 0 mm 1 m/s 673 mmHg 90%
20:00 +23°C° 0 mm 1 m/s 673 mmHg 89%
21:00 +22°C° 0 mm 1 m/s 673 mmHg 88%
22:00 +22°C° 0.3 mm 1 m/s 674 mmHg 88%
23:00 +20°C° 0.3 mm 0 m/s 674 mmHg 88%
Mostrar mais